User: anonymous   Login
Location: Unspecified
(0.0000°N, 0.0000°E)
Time: 21:07:16
(UTC+00:00)
Language:

NANOSAT C BR1 - Orbit

View from above orbital plane
View from above orbital plane
View from above satellite
View from above satellite

Ground track
Ground track

The orbit data is extracted from the following two-line orbital elements,

1 40024U 14033Q   19231.76258836  .00000094  00000-0  15758-4 0  9995
2 40024  97.9117 153.8250 0011408 203.0816 156.9890 14.89870872280680
Epoch (UTC): 19 August 2019 18:18:07
Eccentricity: 0.0011408
inclination: 97.9117°
perigee height: 590 km
apogee height: 606 km
right ascension of ascending node: 153.8250°
argument of perigee: 203.0816°
revolutions per day: 14.89870872
mean anomaly at epoch: 156.9890°
orbit number at epoch: 28068

The dashed part of the orbit path shows where the satellite is in the earth's shadow,  

DLR